Time,TemperatureF,DewpointF,PressureIn,WindDirection,WindDirectionDegrees,WindSpeedMPH,WindSpeedGustMPH,Humidity,HourlyPrecipIn,Conditions,Clouds,dailyrainin,SoftwareType,DateUTC
2013-04-18 00:01:00,75.2,65.9,30.06,SE,132,1.0,4.0,73,0.00,,,0.00,Wunderground v.1.15,2013-04-18 04:01:00,
2013-04-18 00:02:00,75.1,65.9,30.06,SE,132,2.0,5.0,73,0.00,,,0.00,Wunderground v.1.15,2013-04-18 04:02:00,
2013-04-18 00:03:00,75.1,65.9,30.06,SE,138,2.0,10.0,73,0.00,,,0.00,Wunderground v.1.15,2013-04-18 04:03:00,
2013-04-18 00:04:00,75.1,65.9,30.06,SE,126,2.0,10.0,73,0.00,,,0.00,Wunderground v.1.15,2013-04-18 04:04:00,
2013-04-18 00:05:00,75.1,65.9,30.06,ESE,115,2.0,10.0,73,0.00,,,0.00,Wunderground v.1.15,2013-04-18 04:05:00,
2013-04-18 00:12:00,74.9,65.7,30.05,SSW,202,2.0,9.0,73,0.00,,,0.00,Wunderground v.1.15,2013-04-18 04:12:00,
2013-04-18 00:17:00,74.7,65.9,30.05,ESE,119,2.0,9.0,74,0.00,,,0.00,Wunderground v.1.15,2013-04-18 04:17:00,
2013-04-18 00:23:00,74.6,66.1,30.06,ESE,123,1.0,2.0,75,0.00,,,0.00,Wunderground v.1.15,2013-04-18 04:23:00,
2013-04-18 00:29:00,74.5,66.1,30.06,East,101,1.0,2.0,75,0.00,,,0.00,Wunderground v.1.15,2013-04-18 04:29:00,
2013-04-18 00:34:00,74.4,66.3,30.05,ESE,117,1.0,1.0,76,0.00,,,0.00,Wunderground v.1.15,2013-04-18 04:34:00,
2013-04-18 00:40:00,74.3,66.2,30.05,SE,132,1.0,4.0,76,0.00,,,0.00,Wunderground v.1.15,2013-04-18 04:40:00,
2013-04-18 00:46:00,74.2,66.5,30.05,East,101,1.0,7.0,77,0.00,,,0.00,Wunderground v.1.15,2013-04-18 04:46:00,
2013-04-18 00:51:00,74.1,66.4,30.05,SE,133,1.0,1.0,77,0.00,,,0.00,Wunderground v.1.15,2013-04-18 04:51:00,
2013-04-18 00:56:00,74.0,66.7,30.06,ESE,123,0.0,1.0,78,0.00,,,0.00,Wunderground v.1.15,2013-04-18 04:56:00,
2013-04-18 01:01:00,73.9,66.6,30.06,East,98,0.0,0.0,78,0.00,,,0.00,Wunderground v.1.15,2013-04-18 05:01:00,
2013-04-18 01:06:00,73.8,66.5,30.06,ENE,75,0.0,10.0,78,0.00,,,0.00,Wunderground v.1.15,2013-04-18 05:06:00,
2013-04-18 01:12:00,73.7,66.8,30.05,SE,143,0.0,0.0,79,0.00,,,0.00,Wunderground v.1.15,2013-04-18 05:12:00,
2013-04-18 01:17:00,73.6,66.7,30.05,SE,132,0.0,0.0,79,0.00,,,0.00,Wunderground v.1.15,2013-04-18 05:17:00,
2013-04-18 01:23:00,73.5,66.6,30.06,ESE,106,0.0,0.0,79,0.00,,,0.00,Wunderground v.1.15,2013-04-18 05:23:00,
2013-04-18 01:28:00,73.4,66.5,30.06,East,101,1.0,1.0,79,0.00,,,0.00,Wunderground v.1.15,2013-04-18 05:28:00,
2013-04-18 01:34:00,73.3,66.8,30.05,SE,137,0.0,2.0,80,0.00,,,0.00,Wunderground v.1.15,2013-04-18 05:34:00,
2013-04-18 01:39:00,73.3,66.8,30.05,East,100,0.0,2.0,80,0.00,,,0.00,Wunderground v.1.15,2013-04-18 05:39:00,
2013-04-18 01:45:00,73.1,66.9,30.05,ESE,107,0.0,0.0,81,0.00,,,0.00,Wunderground v.1.15,2013-04-18 05:45:00,
2013-04-18 01:51:00,73.0,66.8,30.05,SE,127,0.0,0.0,81,0.00,,,0.00,Wunderground v.1.15,2013-04-18 05:51:00,
2013-04-18 01:56:00,72.9,66.7,30.05,ESE,107,0.0,0.0,81,0.00,,,0.00,Wunderground v.1.15,2013-04-18 05:56:00,
2013-04-18 02:02:00,72.8,66.6,30.05,SE,131,0.0,4.0,81,0.00,,,0.00,Wunderground v.1.15,2013-04-18 06:02:00,
2013-04-18 02:08:00,72.7,66.5,30.05,SE,130,0.0,4.0,81,0.00,,,0.00,Wunderground v.1.15,2013-04-18 06:08:00,
2013-04-18 02:13:00,72.7,66.9,30.05,SE,129,0.0,0.0,82,0.00,,,0.00,Wunderground v.1.15,2013-04-18 06:13:00,
2013-04-18 02:19:00,72.6,66.8,30.05,ESE,121,0.0,0.0,82,0.00,,,0.00,Wunderground v.1.15,2013-04-18 06:19:00,
2013-04-18 02:24:00,72.6,67.1,30.04,ESE,121,0.0,0.0,83,0.00,,,0.00,Wunderground v.1.15,2013-04-18 06:24:00,
2013-04-18 02:30:00,72.5,67.0,30.04,ESE,121,0.0,0.0,83,0.00,,,0.00,Wunderground v.1.15,2013-04-18 06:30:00,
2013-04-18 02:36:00,72.4,66.9,30.04,ESE,122,0.0,0.0,83,0.00,,,0.00,Wunderground v.1.15,2013-04-18 06:36:00,
2013-04-18 02:41:00,72.3,66.8,30.03,SE,142,0.0,0.0,83,0.00,,,0.00,Wunderground v.1.15,2013-04-18 06:41:00,
2013-04-18 02:47:00,72.2,67.1,30.03,SE,132,0.0,0.0,84,0.00,,,0.00,Wunderground v.1.15,2013-04-18 06:47:00,
2013-04-18 02:53:00,72.2,67.1,30.03,ESE,114,0.0,0.0,84,0.00,,,0.00,Wunderground v.1.15,2013-04-18 06:53:00,
2013-04-18 02:59:00,72.1,67.0,30.03,ESE,119,0.0,0.0,84,0.00,,,0.00,Wunderground v.1.15,2013-04-18 06:59:00,
2013-04-18 03:04:00,72.0,66.9,30.03,ESE,123,0.0,1.0,84,0.00,,,0.00,Wunderground v.1.15,2013-04-18 07:04:00,
2013-04-18 03:10:00,72.0,67.2,30.03,SE,143,0.0,1.0,85,0.00,,,0.00,Wunderground v.1.15,2013-04-18 07:10:00,
2013-04-18 03:16:00,71.9,67.1,30.03,SE,140,0.0,1.0,85,0.00,,,0.00,Wunderground v.1.15,2013-04-18 07:16:00,
2013-04-18 03:21:00,71.8,67.0,30.03,East,94,0.0,2.0,85,0.00,,,0.00,Wunderground v.1.15,2013-04-18 07:21:00,
2013-04-18 03:27:00,71.8,67.0,30.03,East,92,0.0,3.0,85,0.00,,,0.00,Wunderground v.1.15,2013-04-18 07:27:00,
2013-04-18 03:32:00,71.7,67.3,30.03,East,84,0.0,0.0,86,0.00,,,0.00,Wunderground v.1.15,2013-04-18 07:32:00,
2013-04-18 03:38:00,71.7,67.3,30.03,ESE,121,0.0,0.0,86,0.00,,,0.00,Wunderground v.1.15,2013-04-18 07:38:00,
2013-04-18 03:43:00,71.6,67.2,30.02,ESE,117,0.0,0.0,86,0.00,,,0.00,Wunderground v.1.15,2013-04-18 07:43:00,
2013-04-18 03:49:00,71.5,67.1,30.02,SE,137,0.0,0.0,86,0.00,,,0.00,Wunderground v.1.15,2013-04-18 07:49:00,
2013-04-18 03:55:00,71.4,67.0,30.02,SE,128,0.0,0.0,86,0.00,,,0.00,Wunderground v.1.15,2013-04-18 07:55:00,
2013-04-18 04:00:00,71.3,66.9,30.02,ESE,114,0.0,1.0,86,0.00,,,0.00,Wunderground v.1.15,2013-04-18 08:00:00,
2013-04-18 04:06:00,71.2,67.1,30.02,South,187,0.0,4.0,87,0.00,,,0.00,Wunderground v.1.15,2013-04-18 08:06:00,
2013-04-18 04:11:00,71.2,67.1,30.02,SE,139,0.0,0.0,87,0.00,,,0.00,Wunderground v.1.15,2013-04-18 08:11:00,
2013-04-18 04:17:00,71.1,67.0,30.02,SE,134,0.0,0.0,87,0.00,,,0.00,Wunderground v.1.15,2013-04-18 08:17:00,
2013-04-18 04:23:00,71.0,66.9,30.02,SSE,158,1.0,3.0,87,0.00,,,0.00,Wunderground v.1.15,2013-04-18 08:23:00,
2013-04-18 04:28:00,71.0,66.9,30.02,SSE,160,0.0,3.0,87,0.00,,,0.00,Wunderground v.1.15,2013-04-18 08:28:00,
2013-04-18 04:34:00,70.9,66.8,30.02,ESE,122,0.0,0.0,87,0.00,,,0.00,Wunderground v.1.15,2013-04-18 08:34:00,
2013-04-18 04:39:00,70.9,66.8,30.02,ESE,115,0.0,2.0,87,0.00,,,0.00,Wunderground v.1.15,2013-04-18 08:39:00,
2013-04-18 04:45:00,70.9,66.8,30.02,ESE,121,0.0,0.0,87,0.00,,,0.00,Wunderground v.1.15,2013-04-18 08:45:00,
2013-04-18 04:50:00,70.9,67.2,30.02,SE,138,0.0,0.0,88,0.00,,,0.00,Wunderground v.1.15,2013-04-18 08:50:00,
2013-04-18 04:56:00,70.9,66.8,30.02,SSE,164,0.0,2.0,87,0.00,,,0.00,Wunderground v.1.15,2013-04-18 08:56:00,
2013-04-18 05:01:00,71.0,67.3,30.02,SE,130,0.0,2.0,88,0.00,,,0.00,Wunderground v.1.15,2013-04-18 09:01:00,
2013-04-18 05:06:00,70.9,67.2,30.02,SE,130,0.0,4.0,88,0.00,,,0.00,Wunderground v.1.15,2013-04-18 09:06:00,
2013-04-18 05:11:00,70.9,66.8,30.02,SE,124,0.0,4.0,87,0.00,,,0.00,Wunderground v.1.15,2013-04-18 09:11:00,
2013-04-18 05:17:00,70.8,66.7,30.02,ESE,121,0.0,2.0,87,0.00,,,0.00,Wunderground v.1.15,2013-04-18 09:17:00,
2013-04-18 05:22:00,70.8,67.1,30.02,SSE,159,0.0,0.0,88,0.00,,,0.00,Wunderground v.1.15,2013-04-18 09:22:00,
2013-04-18 05:27:00,70.8,66.7,30.02,SSE,158,0.0,0.0,87,0.00,,,0.00,Wunderground v.1.15,2013-04-18 09:27:00,
2013-04-18 05:32:00,70.8,66.7,30.02,ESE,115,0.0,0.0,87,0.00,,,0.00,Wunderground v.1.15,2013-04-18 09:32:00,
2013-04-18 05:37:00,70.8,66.7,30.02,SSE,148,0.0,0.0,87,0.00,,,0.00,Wunderground v.1.15,2013-04-18 09:37:00,
2013-04-18 05:43:00,70.8,66.7,30.02,SSE,160,0.0,0.0,87,0.00,,,0.00,Wunderground v.1.15,2013-04-18 09:43:00,
2013-04-18 05:48:00,70.8,66.7,30.02,East,80,0.0,0.0,87,0.00,,,0.00,Wunderground v.1.15,2013-04-18 09:48:00,
2013-04-18 05:54:00,70.8,66.7,30.02,SSE,150,0.0,0.0,87,0.00,,,0.00,Wunderground v.1.15,2013-04-18 09:54:00,
2013-04-18 05:59:00,70.8,66.7,30.02,SSE,152,0.0,0.0,87,0.00,,,0.00,Wunderground v.1.15,2013-04-18 09:59:00,
2013-04-18 06:05:00,70.8,66.7,30.02,SE,140,0.0,4.0,87,0.00,,,0.00,Wunderground v.1.15,2013-04-18 10:05:00,
2013-04-18 06:10:00,70.8,66.7,30.02,SE,126,0.0,4.0,87,0.00,,,0.00,Wunderground v.1.15,2013-04-18 10:10:00,
2013-04-18 06:16:00,70.8,66.4,30.02,SSE,150,0.0,0.0,86,0.00,,,0.00,Wunderground v.1.15,2013-04-18 10:16:00,
2013-04-18 06:22:00,70.8,66.4,30.03,East,87,0.0,0.0,86,0.00,,,0.00,Wunderground v.1.15,2013-04-18 10:22:00,
2013-04-18 06:27:00,70.8,66.4,30.03,East,87,0.0,0.0,86,0.00,,,0.00,Wunderground v.1.15,2013-04-18 10:27:00,
2013-04-18 06:33:00,70.8,66.4,30.03,East,90,0.0,0.0,86,0.00,,,0.00,Wunderground v.1.15,2013-04-18 10:33:00,
2013-04-18 06:38:00,70.8,66.4,30.03,ESE,103,0.0,0.0,86,0.00,,,0.00,Wunderground v.1.15,2013-04-18 10:38:00,
2013-04-18 06:44:00,70.8,66.4,30.03,ESE,121,0.0,0.0,86,0.00,,,0.00,Wunderground v.1.15,2013-04-18 10:44:00,
2013-04-18 06:50:00,70.7,66.6,30.03,SSE,159,0.0,0.0,87,0.00,,,0.00,Wunderground v.1.15,2013-04-18 10:50:00,
2013-04-18 06:55:00,70.7,66.6,30.03,SE,143,0.0,0.0,87,0.00,,,0.00,Wunderground v.1.15,2013-04-18 10:55:00,
2013-04-18 07:02:00,70.7,66.6,30.03,ESE,119,0.0,0.0,87,0.00,,,0.00,Wunderground v.1.15,2013-04-18 11:02:00,
2013-04-18 07:07:00,70.6,66.5,30.03,ESE,120,0.0,1.0,87,0.00,,,0.00,Wunderground v.1.15,2013-04-18 11:07:00,
2013-04-18 07:13:00,70.6,66.5,30.04,ESE,119,0.0,0.0,87,0.00,,,0.00,Wunderground v.1.15,2013-04-18 11:13:00,
2013-04-18 07:19:00,70.6,66.9,30.03,SSE,150,0.0,0.0,88,0.00,,,0.00,Wunderground v.1.15,2013-04-18 11:19:00,
2013-04-18 07:25:00,70.6,66.9,30.03,SE,145,0.0,0.0,88,0.00,,,0.00,Wunderground v.1.15,2013-04-18 11:25:00,
2013-04-18 07:30:00,70.6,66.9,30.04,SE,145,0.0,0.0,88,0.00,,,0.00,Wunderground v.1.15,2013-04-18 11:30:00,
2013-04-18 07:37:00,70.7,67.0,30.04,SE,146,0.0,0.0,88,0.00,,,0.00,Wunderground v.1.15,2013-04-18 11:37:00,
2013-04-18 07:43:00,70.7,67.0,30.05,SE,139,0.0,0.0,88,0.00,,,0.00,Wunderground v.1.15,2013-04-18 11:43:00,
2013-04-18 07:48:00,70.8,67.1,30.04,SE,134,0.0,0.0,88,0.00,,,0.00,Wunderground v.1.15,2013-04-18 11:48:00,
2013-04-18 07:53:00,70.9,67.2,30.05,NE,46,0.0,0.0,88,0.00,,,0.00,Wunderground v.1.15,2013-04-18 11:53:00,
2013-04-18 07:59:00,71.1,67.0,30.05,ESE,113,0.0,3.0,87,0.00,,,0.00,Wunderground v.1.15,2013-04-18 11:59:00,
2013-04-18 08:05:00,71.3,67.2,30.04,South,187,0.0,1.0,87,0.00,,,0.00,Wunderground v.1.15,2013-04-18 12:05:00,
2013-04-18 08:11:00,71.6,67.5,30.05,SSE,159,0.0,1.0,87,0.00,,,0.00,Wunderground v.1.15,2013-04-18 12:11:00,
2013-04-18 08:17:00,72.0,67.6,30.05,SSE,165,0.0,3.0,86,0.00,,,0.00,Wunderground v.1.15,2013-04-18 12:17:00,
2013-04-18 08:22:00,72.3,67.5,30.05,ESE,114,1.0,1.0,85,0.00,,,0.00,Wunderground v.1.15,2013-04-18 12:22:00,
2013-04-18 08:28:00,72.8,67.7,30.05,SE,141,0.0,1.0,84,0.00,,,0.00,Wunderground v.1.15,2013-04-18 12:28:00,
2013-04-18 08:34:00,73.2,67.7,30.05,ESE,111,0.0,0.0,83,0.00,,,0.00,Wunderground v.1.15,2013-04-18 12:34:00,
2013-04-18 08:39:00,73.6,68.1,30.05,SSW,207,0.0,4.0,83,0.00,,,0.00,Wunderground v.1.15,2013-04-18 12:39:00,
2013-04-18 08:45:00,73.9,68.1,30.05,SE,125,0.0,0.0,82,0.00,,,0.00,Wunderground v.1.15,2013-04-18 12:45:00,
2013-04-18 08:50:00,74.3,68.4,30.05,ESE,121,0.0,0.0,82,0.00,,,0.00,Wunderground v.1.15,2013-04-18 12:50:00,
2013-04-18 08:57:00,74.8,68.2,30.05,East,88,1.0,5.0,80,0.00,,,0.00,Wunderground v.1.15,2013-04-18 12:57:00,
2013-04-18 09:03:00,75.1,68.1,30.05,ESE,109,2.0,6.0,79,0.00,,,0.00,Wunderground v.1.15,2013-04-18 13:03:00,
2013-04-18 09:08:00,75.3,68.3,30.05,East,87,2.0,6.0,79,0.00,,,0.00,Wunderground v.1.15,2013-04-18 13:08:00,
2013-04-18 09:14:00,75.7,68.7,30.05,ESE,113,1.0,2.0,79,0.00,,,0.00,Wunderground v.1.15,2013-04-18 13:14:00,
2013-04-18 09:20:00,75.9,68.5,30.05,ESE,120,1.0,3.0,78,0.00,,,0.00,Wunderground v.1.15,2013-04-18 13:20:00,
2013-04-18 09:25:00,76.2,68.8,30.05,East,94,1.0,4.0,78,0.00,,,0.00,Wunderground v.1.15,2013-04-18 13:25:00,
2013-04-18 09:31:00,76.4,68.7,30.05,SSE,159,1.0,4.0,77,0.00,,,0.00,Wunderground v.1.15,2013-04-18 13:31:00,
2013-04-18 09:37:00,76.5,68.7,30.05,South,190,0.0,1.0,77,0.00,,,0.00,Wunderground v.1.15,2013-04-18 13:37:00,
2013-04-18 09:43:00,76.9,68.8,30.05,ESE,102,0.0,2.0,76,0.00,,,0.00,Wunderground v.1.15,2013-04-18 13:43:00,
2013-04-18 09:49:00,77.3,69.1,30.05,ESE,117,0.0,2.0,76,0.00,,,0.00,Wunderground v.1.15,2013-04-18 13:49:00,
2013-04-18 09:55:00,77.7,69.1,30.05,SE,142,0.0,1.0,75,0.00,,,0.00,Wunderground v.1.15,2013-04-18 13:55:00,
2013-04-18 10:00:00,78.3,69.3,30.05,East,91,0.0,1.0,74,0.00,,,0.00,Wunderground v.1.15,2013-04-18 14:00:00,
2013-04-18 10:06:00,78.5,69.1,30.05,SSW,199,1.0,6.0,73,0.00,,,0.00,Wunderground v.1.15,2013-04-18 14:06:00,
2013-04-18 10:12:00,78.5,69.5,30.05,ESE,107,1.0,1.0,74,0.00,,,0.00,Wunderground v.1.15,2013-04-18 14:12:00,
2013-04-18 10:17:00,79.0,69.6,30.05,ENE,78,0.0,1.0,73,0.00,,,0.00,Wunderground v.1.15,2013-04-18 14:17:00,
2013-04-18 10:23:00,79.3,69.5,30.05,East,101,1.0,1.0,72,0.00,,,0.00,Wunderground v.1.15,2013-04-18 14:23:00,
2013-04-18 10:28:00,79.5,69.7,30.05,East,101,1.0,3.0,72,0.00,,,0.00,Wunderground v.1.15,2013-04-18 14:28:00,
2013-04-18 10:34:00,79.9,69.7,30.05,South,178,1.0,4.0,71,0.00,,,0.00,Wunderground v.1.15,2013-04-18 14:34:00,
2013-04-18 10:39:00,80.1,69.8,30.05,SSE,168,2.0,4.0,71,0.00,,,0.00,Wunderground v.1.15,2013-04-18 14:39:00,
2013-04-18 10:45:00,80.5,69.8,30.05,ESE,117,1.0,3.0,70,0.00,,,0.00,Wunderground v.1.15,2013-04-18 14:45:00,
2013-04-18 10:50:00,81.0,69.9,30.05,East,82,1.0,5.0,69,0.00,,,0.00,Wunderground v.1.15,2013-04-18 14:50:00,
2013-04-18 10:56:00,81.5,70.3,30.05,ENE,72,2.0,4.0,69,0.00,,,0.00,Wunderground v.1.15,2013-04-18 14:56:00,
2013-04-18 11:02:00,81.6,70.0,30.05,SSE,149,2.0,2.0,68,0.00,,,0.00,Wunderground v.1.15,2013-04-18 15:02:00,
2013-04-18 11:07:00,82.0,70.4,30.05,ESE,103,1.0,3.0,68,0.00,,,0.00,Wunderground v.1.15,2013-04-18 15:07:00,
2013-04-18 11:13:00,82.3,69.8,30.05,South,181,2.0,4.0,66,0.00,,,0.00,Wunderground v.1.15,2013-04-18 15:13:00,
2013-04-18 11:19:00,82.8,70.3,30.04,ESE,114,2.0,4.0,66,0.00,,,0.00,Wunderground v.1.15,2013-04-18 15:19:00,
2013-04-18 11:24:00,83.0,70.5,30.04,SE,125,1.0,7.0,66,0.00,,,0.00,Wunderground v.1.15,2013-04-18 15:24:00,
2013-04-18 11:31:00,83.0,70.0,30.04,ENE,76,3.0,4.0,65,0.00,,,0.00,Wunderground v.1.15,2013-04-18 15:31:00,
2013-04-18 11:36:00,83.2,70.7,30.04,SSE,165,2.0,4.0,66,0.00,,,0.00,Wunderground v.1.15,2013-04-18 15:36:00,
2013-04-18 11:41:00,83.7,70.2,30.04,ENE,72,1.0,1.0,64,0.00,,,0.00,Wunderground v.1.15,2013-04-18 15:41:00,
2013-04-18 11:46:00,84.1,70.1,30.04,SSE,154,1.0,5.0,63,0.00,,,0.00,Wunderground v.1.15,2013-04-18 15:46:00,
2013-04-18 11:52:00,84.2,69.8,30.04,South,189,3.0,10.0,62,0.00,,,0.00,Wunderground v.1.15,2013-04-18 15:52:00,
2013-04-18 11:58:00,84.1,70.1,30.04,ESE,105,3.0,10.0,63,0.00,,,0.00,Wunderground v.1.15,2013-04-18 15:58:00,
2013-04-18 12:03:00,84.8,69.9,30.05,SE,124,1.0,10.0,61,0.00,,,0.00,Wunderground v.1.15,2013-04-18 16:03:00,
2013-04-18 12:09:00,85.2,69.7,30.04,East,82,1.0,10.0,60,0.00,,,0.00,Wunderground v.1.15,2013-04-18 16:09:00,
2013-04-18 12:14:00,85.8,70.3,30.04,SE,130,0.0,2.0,60,0.00,,,0.00,Wunderground v.1.15,2013-04-18 16:14:00,
2013-04-18 12:19:00,86.1,69.6,30.04,ENE,76,1.0,2.0,58,0.00,,,0.00,Wunderground v.1.15,2013-04-18 16:19:00,
2013-04-18 12:25:00,86.8,69.7,30.04,South,180,0.0,1.0,57,0.00,,,0.00,Wunderground v.1.15,2013-04-18 16:25:00,
2013-04-18 12:30:00,86.9,69.3,30.04,East,101,0.0,1.0,56,0.00,,,0.00,Wunderground v.1.15,2013-04-18 16:30:00,
2013-04-18 12:36:00,87.4,69.3,30.04,ESE,112,1.0,4.0,55,0.00,,,0.00,Wunderground v.1.15,2013-04-18 16:36:00,
2013-04-18 12:41:00,87.5,68.3,30.04,South,169,1.0,4.0,53,0.00,,,0.00,Wunderground v.1.15,2013-04-18 16:41:00,
2013-04-18 12:47:00,87.9,69.2,30.04,NE,38,1.0,1.0,54,0.00,,,0.00,Wunderground v.1.15,2013-04-18 16:47:00,
2013-04-18 12:53:00,88.9,69.0,30.03,SSE,161,0.0,1.0,52,0.00,,,0.00,Wunderground v.1.15,2013-04-18 16:53:00,
2013-04-18 12:58:00,89.3,68.8,30.03,NE,56,0.0,1.0,51,0.00,,,0.00,Wunderground v.1.15,2013-04-18 16:58:00,
2013-04-18 13:04:00,89.7,67.4,30.03,ESE,123,0.0,0.0,48,0.00,,,0.00,Wunderground v.1.15,2013-04-18 17:04:00,
2013-04-18 13:10:00,89.3,67.0,30.03,SSE,153,0.0,2.0,48,0.00,,,0.00,Wunderground v.1.15,2013-04-18 17:10:00,
2013-04-18 13:15:00,89.3,67.6,30.02,SW,226,1.0,4.0,49,0.00,,,0.00,Wunderground v.1.15,2013-04-18 17:15:00,
2013-04-18 13:20:00,89.3,67.6,30.02,ESE,122,1.0,4.0,49,0.00,,,0.00,Wunderground v.1.15,2013-04-18 17:20:00,
2013-04-18 13:26:00,88.9,67.3,30.03,South,191,1.0,2.0,49,0.00,,,0.00,Wunderground v.1.15,2013-04-18 17:26:00,
2013-04-18 13:31:00,89.3,68.2,30.02,East,99,1.0,4.0,50,0.00,,,0.00,Wunderground v.1.15,2013-04-18 17:31:00,
2013-04-18 13:37:00,89.9,67.6,30.02,NNE,21,0.0,1.0,48,0.00,,,0.00,Wunderground v.1.15,2013-04-18 17:37:00,
2013-04-18 13:42:00,89.8,67.5,30.02,South,183,1.0,1.0,48,0.00,,,0.00,Wunderground v.1.15,2013-04-18 17:42:00,
2013-04-18 13:48:00,90.1,67.8,30.02,East,83,1.0,1.0,48,0.00,,,0.00,Wunderground v.1.15,2013-04-18 17:48:00,
2013-04-18 13:53:00,90.1,68.4,30.02,South,169,0.0,0.0,49,0.00,,,0.00,Wunderground v.1.15,2013-04-18 17:53:00,
2013-04-18 13:58:00,90.4,68.0,30.02,SSW,202,1.0,7.0,48,0.00,,,0.00,Wunderground v.1.15,2013-04-18 17:58:00,
2013-04-18 14:04:00,90.3,67.3,30.02,SE,133,2.0,9.0,47,0.00,,,0.00,Wunderground v.1.15,2013-04-18 18:04:00,
2013-04-18 14:09:00,89.8,67.5,30.02,South,183,3.0,9.0,48,0.00,,,0.00,Wunderground v.1.15,2013-04-18 18:09:00,
2013-04-18 14:15:00,89.4,68.3,30.01,SSE,158,2.0,3.0,50,0.00,,,0.00,Wunderground v.1.15,2013-04-18 18:15:00,
2013-04-18 14:20:00,89.1,68.0,30.01,SSE,161,1.0,3.0,50,0.00,,,0.00,Wunderground v.1.15,2013-04-18 18:20:00,
2013-04-18 14:27:00,89.1,68.0,30.01,ESE,119,1.0,1.0,50,0.00,,,0.00,Wunderground v.1.15,2013-04-18 18:27:00,
2013-04-18 14:32:00,89.1,68.0,30.01,South,173,1.0,1.0,50,0.00,,,0.00,Wunderground v.1.15,2013-04-18 18:32:00,
2013-04-18 14:38:00,89.4,68.3,30.01,SSE,156,0.0,1.0,50,0.00,,,0.00,Wunderground v.1.15,2013-04-18 18:38:00,
2013-04-18 14:44:00,89.6,67.9,30.01,South,186,1.0,3.0,49,0.00,,,0.00,Wunderground v.1.15,2013-04-18 18:44:00,
2013-04-18 14:49:00,89.7,68.0,30.01,SE,127,1.0,5.0,49,0.00,,,0.00,Wunderground v.1.15,2013-04-18 18:49:00,
2013-04-18 14:54:00,89.6,68.5,30.01,ESE,109,0.0,0.0,50,0.00,,,0.00,Wunderground v.1.15,2013-04-18 18:54:00,
2013-04-18 15:00:00,90.0,68.3,30.00,NE,46,0.0,5.0,49,0.00,,,0.00,Wunderground v.1.15,2013-04-18 19:00:00,
2013-04-18 15:05:00,90.8,68.4,30.00,South,184,1.0,10.0,48,0.00,,,0.00,Wunderground v.1.15,2013-04-18 19:05:00,
2013-04-18 15:12:00,90.1,67.8,30.00,SSE,163,2.0,2.0,48,0.00,,,0.00,Wunderground v.1.15,2013-04-18 19:12:00,
2013-04-18 15:17:00,89.8,68.1,29.99,ENE,65,2.0,4.0,49,0.00,,,0.00,Wunderground v.1.15,2013-04-18 19:17:00,
2013-04-18 15:22:00,89.9,68.2,29.98,ESE,110,0.0,0.0,49,0.00,,,0.00,Wunderground v.1.15,2013-04-18 19:22:00,
2013-04-18 15:28:00,89.9,68.2,29.99,ESE,122,0.0,1.0,49,0.00,,,0.00,Wunderground v.1.15,2013-04-18 19:28:00,
2013-04-18 15:34:00,90.2,68.5,29.99,South,188,0.0,0.0,49,0.00,,,0.00,Wunderground v.1.15,2013-04-18 19:34:00,
2013-04-18 15:39:00,89.9,68.2,29.99,ESE,107,0.0,2.0,49,0.00,,,0.00,Wunderground v.1.15,2013-04-18 19:39:00,
2013-04-18 15:45:00,89.4,68.3,29.98,South,191,1.0,1.0,50,0.00,,,0.00,Wunderground v.1.15,2013-04-18 19:45:00,
2013-04-18 15:50:00,89.2,68.1,29.98,South,173,1.0,1.0,50,0.00,,,0.00,Wunderground v.1.15,2013-04-18 19:50:00,
2013-04-18 15:56:00,89.0,69.1,29.98,SSE,153,1.0,3.0,52,0.00,,,0.00,Wunderground v.1.15,2013-04-18 19:56:00,
2013-04-18 16:01:00,88.7,68.8,29.98,ESE,108,1.0,6.0,52,0.00,,,0.00,Wunderground v.1.15,2013-04-18 20:01:00,
2013-04-18 16:07:00,88.3,69.5,29.98,South,178,1.0,6.0,54,0.00,,,0.00,Wunderground v.1.15,2013-04-18 20:07:00,
2013-04-18 16:12:00,88.2,70.0,29.97,WNW,294,0.0,1.0,55,0.00,,,0.00,Wunderground v.1.15,2013-04-18 20:12:00,
2013-04-18 16:18:00,88.6,70.9,29.97,South,174,1.0,2.0,56,0.00,,,0.00,Wunderground v.1.15,2013-04-18 20:18:00,
2013-04-18 16:24:00,88.5,70.3,29.98,SW,214,2.0,8.0,55,0.00,,,0.00,Wunderground v.1.15,2013-04-18 20:24:00,
2013-04-18 16:29:00,88.1,70.4,29.98,SW,236,3.0,8.0,56,0.00,,,0.00,Wunderground v.1.15,2013-04-18 20:29:00,
2013-04-18 16:35:00,87.9,70.2,29.98,WSW,243,2.0,10.0,56,0.00,,,0.00,Wunderground v.1.15,2013-04-18 20:35:00,
2013-04-18 16:40:00,88.2,70.0,29.97,SSE,161,2.0,2.0,55,0.00,,,0.00,Wunderground v.1.15,2013-04-18 20:40:00,
2013-04-18 16:46:00,88.2,70.0,29.97,South,173,1.0,5.0,55,0.00,,,0.00,Wunderground v.1.15,2013-04-18 20:46:00,
2013-04-18 16:51:00,88.0,69.3,29.97,South,182,2.0,6.0,54,0.00,,,0.00,Wunderground v.1.15,2013-04-18 20:51:00,
2013-04-18 16:57:00,87.6,69.4,29.97,WSW,240,2.0,7.0,55,0.00,,,0.00,Wunderground v.1.15,2013-04-18 20:57:00,
2013-04-18 17:03:00,87.6,68.9,29.97,SSW,212,1.0,7.0,54,0.00,,,0.00,Wunderground v.1.15,2013-04-18 21:03:00,
2013-04-18 17:08:00,87.2,69.1,29.97,SW,236,1.0,7.0,55,0.00,,,0.00,Wunderground v.1.15,2013-04-18 21:08:00,
2013-04-18 17:14:00,86.8,69.2,29.97,SW,226,1.0,3.0,56,0.00,,,0.00,Wunderground v.1.15,2013-04-18 21:14:00,
2013-04-18 17:19:00,86.6,69.0,29.97,South,171,0.0,5.0,56,0.00,,,0.00,Wunderground v.1.15,2013-04-18 21:19:00,
2013-04-18 17:25:00,86.2,69.2,29.97,South,182,1.0,4.0,57,0.00,,,0.00,Wunderground v.1.15,2013-04-18 21:25:00,
2013-04-18 17:30:00,86.1,68.6,29.97,South,173,1.0,7.0,56,0.00,,,0.00,Wunderground v.1.15,2013-04-18 21:30:00,
2013-04-18 17:36:00,86.1,69.1,29.97,SSW,199,1.0,10.0,57,0.00,,,0.00,Wunderground v.1.15,2013-04-18 21:36:00,
2013-04-18 17:41:00,86.1,68.0,29.97,SSW,192,1.0,2.0,55,0.00,,,0.00,Wunderground v.1.15,2013-04-18 21:41:00,
2013-04-18 17:46:00,85.7,67.7,29.97,SSW,203,2.0,8.0,55,0.00,,,0.00,Wunderground v.1.15,2013-04-18 21:46:00,
2013-04-18 17:51:00,85.3,67.3,29.97,SSW,205,2.0,3.0,55,0.00,,,0.00,Wunderground v.1.15,2013-04-18 21:51:00,
2013-04-18 17:57:00,85.1,67.1,29.96,SSW,209,2.0,8.0,55,0.00,,,0.00,Wunderground v.1.15,2013-04-18 21:57:00,
2013-04-18 18:02:00,84.9,67.5,29.97,South,169,2.0,10.0,56,0.00,,,0.00,Wunderground v.1.15,2013-04-18 22:02:00,
2013-04-18 18:08:00,84.7,67.8,29.97,South,184,1.0,10.0,57,0.00,,,0.00,Wunderground v.1.15,2013-04-18 22:08:00,
2013-04-18 18:13:00,84.6,66.7,29.97,SW,234,1.0,5.0,55,0.00,,,0.00,Wunderground v.1.15,2013-04-18 22:13:00,
2013-04-18 18:18:00,84.5,67.1,29.96,SSE,167,2.0,6.0,56,0.00,,,0.00,Wunderground v.1.15,2013-04-18 22:18:00,
2013-04-18 18:23:00,84.5,67.1,29.96,South,171,2.0,3.0,56,0.00,,,0.00,Wunderground v.1.15,2013-04-18 22:23:00,
2013-04-18 18:29:00,84.3,66.9,29.96,South,184,2.0,4.0,56,0.00,,,0.00,Wunderground v.1.15,2013-04-18 22:29:00,
2013-04-18 18:34:00,84.2,67.3,29.96,South,186,1.0,3.0,57,0.00,,,0.00,Wunderground v.1.15,2013-04-18 22:34:00,
2013-04-18 18:39:00,84.2,67.8,29.96,South,175,1.0,3.0,58,0.00,,,0.00,Wunderground v.1.15,2013-04-18 22:39:00,
2013-04-18 18:45:00,84.2,67.8,29.96,SW,224,1.0,1.0,58,0.00,,,0.00,Wunderground v.1.15,2013-04-18 22:45:00,
2013-04-18 18:50:00,84.0,68.1,29.96,SSW,206,1.0,1.0,59,0.00,,,0.00,Wunderground v.1.15,2013-04-18 22:50:00,
2013-04-18 18:55:00,83.8,68.4,29.96,SSW,213,1.0,3.0,60,0.00,,,0.00,Wunderground v.1.15,2013-04-18 22:55:00,
2013-04-18 19:01:00,83.6,68.7,29.96,South,175,1.0,10.0,61,0.00,,,0.00,Wunderground v.1.15,2013-04-18 23:01:00,
2013-04-18 19:06:00,83.2,67.9,29.96,SW,221,1.0,10.0,60,0.00,,,0.00,Wunderground v.1.15,2013-04-18 23:06:00,
2013-04-18 19:11:00,82.8,67.5,29.96,SSE,167,1.0,1.0,60,0.00,,,0.00,Wunderground v.1.15,2013-04-18 23:11:00,
2013-04-18 19:17:00,82.6,67.8,29.96,SSW,207,2.0,5.0,61,0.00,,,0.00,Wunderground v.1.15,2013-04-18 23:17:00,
2013-04-18 19:22:00,82.4,68.1,29.96,SSE,152,2.0,2.0,62,0.00,,,0.00,Wunderground v.1.15,2013-04-18 23:22:00,
2013-04-18 19:27:00,82.2,68.3,29.96,South,190,0.0,3.0,63,0.00,,,0.00,Wunderground v.1.15,2013-04-18 23:27:00,
2013-04-18 19:33:00,82.0,69.1,29.96,SSW,213,0.0,1.0,65,0.00,,,0.00,Wunderground v.1.15,2013-04-18 23:33:00,
2013-04-18 19:39:00,81.7,69.2,29.96,South,187,1.0,3.0,66,0.00,,,0.00,Wunderground v.1.15,2013-04-18 23:39:00,
2013-04-18 19:44:00,81.3,69.3,29.97,South,188,2.0,5.0,67,0.00,,,0.00,Wunderground v.1.15,2013-04-18 23:44:00,
2013-04-18 19:50:00,81.0,69.9,29.96,SW,235,2.0,4.0,69,0.00,,,0.00,Wunderground v.1.15,2013-04-18 23:50:00,
2013-04-18 19:55:00,80.9,69.8,29.97,SW,229,1.0,4.0,69,0.00,,,0.00,Wunderground v.1.15,2013-04-18 23:55:00,
2013-04-18 20:00:00,80.7,69.2,29.97,SW,220,0.0,4.0,68,0.00,,,0.00,Wunderground v.1.15,2013-04-19 00:00:00,
2013-04-18 20:05:00,80.5,69.0,29.97,SSW,211,1.0,9.0,68,0.00,,,0.00,Wunderground v.1.15,2013-04-19 00:05:00,
2013-04-18 20:11:00,80.4,68.9,29.97,SW,219,0.0,3.0,68,0.00,,,0.00,Wunderground v.1.15,2013-04-19 00:11:00,
2013-04-18 20:16:00,80.2,69.1,29.98,SW,220,0.0,3.0,69,0.00,,,0.00,Wunderground v.1.15,2013-04-19 00:16:00,
2013-04-18 20:22:00,80.2,69.5,29.98,SW,220,0.0,0.0,70,0.00,,,0.00,Wunderground v.1.15,2013-04-19 00:22:00,
2013-04-18 20:27:00,80.1,69.4,29.98,SW,221,0.0,0.0,70,0.00,,,0.00,Wunderground v.1.15,2013-04-19 00:27:00,
2013-04-18 20:32:00,80.0,69.7,29.98,SW,222,0.0,0.0,71,0.00,,,0.00,Wunderground v.1.15,2013-04-19 00:32:00,
2013-04-18 20:38:00,80.0,70.2,29.98,South,188,0.0,3.0,72,0.00,,,0.00,Wunderground v.1.15,2013-04-19 00:38:00,
2013-04-18 20:43:00,79.8,70.4,29.98,SSW,205,1.0,5.0,73,0.00,,,0.00,Wunderground v.1.15,2013-04-19 00:43:00,
2013-04-18 20:48:00,79.7,70.3,29.98,SSW,208,1.0,5.0,73,0.00,,,0.00,Wunderground v.1.15,2013-04-19 00:48:00,
2013-04-18 20:54:00,79.6,70.6,29.98,SSW,198,0.0,1.0,74,0.00,,,0.00,Wunderground v.1.15,2013-04-19 00:54:00,
2013-04-18 20:59:00,79.5,70.9,29.99,SSW,202,0.0,4.0,75,0.00,,,0.00,Wunderground v.1.15,2013-04-19 00:59:00,
2013-04-18 21:04:00,79.3,70.7,29.99,SSW,205,1.0,6.0,75,0.00,,,0.00,Wunderground v.1.15,2013-04-19 01:04:00,
2013-04-18 21:10:00,79.2,70.6,29.99,SW,215,1.0,5.0,75,0.00,,,0.00,Wunderground v.1.15,2013-04-19 01:10:00,
2013-04-18 21:16:00,79.1,70.5,29.99,South,183,1.0,5.0,75,0.00,,,0.00,Wunderground v.1.15,2013-04-19 01:16:00,
2013-04-18 21:21:00,79.1,70.5,29.99,SSW,198,1.0,4.0,75,0.00,,,0.00,Wunderground v.1.15,2013-04-19 01:21:00,
2013-04-18 21:27:00,79.0,70.4,29.99,South,186,2.0,4.0,75,0.00,,,0.00,Wunderground v.1.15,2013-04-19 01:27:00,
2013-04-18 21:32:00,79.0,70.8,29.99,SSW,200,1.0,2.0,76,0.00,,,0.00,Wunderground v.1.15,2013-04-19 01:32:00,
2013-04-18 21:38:00,79.0,70.8,30.00,South,172,1.0,5.0,76,0.00,,,0.00,Wunderground v.1.15,2013-04-19 01:38:00,
2013-04-18 21:43:00,78.9,71.1,29.99,WSW,244,1.0,5.0,77,0.00,,,0.00,Wunderground v.1.15,2013-04-19 01:43:00,
2013-04-18 21:48:00,78.9,71.1,30.00,SSW,212,1.0,5.0,77,0.00,,,0.00,Wunderground v.1.15,2013-04-19 01:48:00,
2013-04-18 21:54:00,78.8,71.4,30.00,SSW,213,0.0,1.0,78,0.00,,,0.00,Wunderground v.1.15,2013-04-19 01:54:00,
2013-04-18 21:59:00,78.8,71.4,30.00,SSW,213,0.0,1.0,78,0.00,,,0.00,Wunderground v.1.15,2013-04-19 01:59:00,
2013-04-18 22:04:00,78.7,71.3,30.00,SW,223,0.0,6.0,78,0.00,,,0.00,Wunderground v.1.15,2013-04-19 02:04:00,
2013-04-18 22:10:00,78.6,71.5,30.01,SSW,192,0.0,0.0,79,0.00,,,0.00,Wunderground v.1.15,2013-04-19 02:10:00,
2013-04-18 22:15:00,78.5,71.4,30.01,SSW,209,0.0,0.0,79,0.00,,,0.00,Wunderground v.1.15,2013-04-19 02:15:00,
2013-04-18 22:20:00,78.5,71.8,30.01,South,180,0.0,0.0,80,0.00,,,0.00,Wunderground v.1.15,2013-04-19 02:20:00,
2013-04-18 22:26:00,78.5,71.8,30.01,SSE,168,0.0,0.0,80,0.00,,,0.00,Wunderground v.1.15,2013-04-19 02:26:00,
2013-04-18 22:31:00,78.5,71.8,30.01,SW,218,0.0,0.0,80,0.00,,,0.00,Wunderground v.1.15,2013-04-19 02:31:00,
2013-04-18 22:36:00,78.6,71.9,30.01,South,191,0.0,0.0,80,0.00,,,0.00,Wunderground v.1.15,2013-04-19 02:36:00,
2013-04-18 22:42:00,78.6,71.9,30.01,South,180,0.0,1.0,80,0.00,,,0.00,Wunderground v.1.15,2013-04-19 02:42:00,
2013-04-18 22:47:00,78.6,71.9,30.02,South,187,0.0,1.0,80,0.00,,,0.00,Wunderground v.1.15,2013-04-19 02:47:00,
2013-04-18 22:52:00,78.6,71.9,30.02,South,184,0.0,0.0,80,0.00,,,0.00,Wunderground v.1.15,2013-04-19 02:52:00,
2013-04-18 22:58:00,78.6,71.9,30.02,South,189,0.0,0.0,80,0.00,,,0.00,Wunderground v.1.15,2013-04-19 02:58:00,
2013-04-18 23:03:00,78.6,71.9,30.02,South,189,0.0,0.0,80,0.00,,,0.00,Wunderground v.1.15,2013-04-19 03:03:00,
2013-04-18 23:08:00,78.6,71.9,30.01,South,189,0.0,0.0,80,0.00,,,0.00,Wunderground v.1.15,2013-04-19 03:08:00,
2013-04-18 23:14:00,78.6,71.9,30.01,South,189,0.0,0.0,80,0.00,,,0.00,Wunderground v.1.15,2013-04-19 03:14:00,
2013-04-18 23:19:00,78.5,71.8,30.01,South,189,0.0,0.0,80,0.00,,,0.00,Wunderground v.1.15,2013-04-19 03:19:00,
2013-04-18 23:24:00,78.5,72.2,30.01,South,189,0.0,0.0,81,0.00,,,0.00,Wunderground v.1.15,2013-04-19 03:24:00,
2013-04-18 23:30:00,78.4,72.1,30.01,South,188,0.0,0.0,81,0.00,,,0.00,Wunderground v.1.15,2013-04-19 03:30:00,
2013-04-18 23:35:00,78.4,72.1,30.01,South,188,0.0,0.0,81,0.00,,,0.00,Wunderground v.1.15,2013-04-19 03:35:00,
2013-04-18 23:40:00,78.3,72.0,30.01,South,188,0.0,0.0,81,0.00,,,0.00,Wunderground v.1.15,2013-04-19 03:40:00,
2013-04-18 23:46:00,78.3,71.6,30.02,SSW,200,0.0,1.0,80,0.00,,,0.00,Wunderground v.1.15,2013-04-19 03:46:00,
2013-04-18 23:51:00,78.4,72.1,30.02,SW,218,1.0,4.0,81,0.00,,,0.00,Wunderground v.1.15,2013-04-19 03:51:00,
2013-04-18 23:56:00,78.3,72.7,30.01,South,183,1.0,4.0,83,0.00,,,0.01,Wunderground v.1.15,2013-04-19 03:56:00,